User: anonymous   Login
Location: Niedergestelen
(46.3129°N, 7.7822°E)
Time: 05:13:51
(UTC+00:00)
Language:

USA 238 DEB - Orbit

View from above orbital plane
View from above orbital plane
View from above satellite
View from above satellite

Ground track
Ground track

The orbit data is extracted from the following two-line orbital elements,

1 38773U 12048P   21055.05752334 0.00000010  00000-0  16919-4 0    09
2 38773  63.4444 110.6976 0152094 359.6679   0.3321 13.40817579    05
Epoch (UTC): 24 February 2021 01:22:50
Eccentricity: 0.0152094
inclination: 63.4444°
perigee height: 992 km
apogee height: 1220 km
right ascension of ascending node: 110.6976°
argument of perigee: 359.6679°
revolutions per day: 13.40817579
mean anomaly at epoch: 0.3321°
orbit number at epoch: 0

The dashed part of the orbit path shows where the satellite is in the earth's shadow,  

DLR